FW0394 Weather Reports


time (UTC)temp
F
wind
direction
speed
knots
gust
knots
rain 1hr
in
rain 24hr
in
rain mn
in
humidity
%
barometer
mb
20260906184003 90 142 1.7 7.0 0.00 0.00 0.00 67 1014.1
20260906183503 89 146 2.6 7.0 0.00 0.00 0.00 70 1014.2
20260906183003 89 134 1.7 6.1 0.00 0.00 0.00 68 1014.3
20260906182504 88 158 1.7 6.1 0.00 0.00 0.00 69 1014.3
20260906182004 88 161 2.6 7.0 0.00 0.00 0.00 70 1014.4
20260906181503 87 152 2.6 7.0 0.00 0.00 0.00 70 1014.5
20260906181003 87 151 3.5 7.8 0.00 0.00 0.00 72 1014.5
20260906180714 87 156 3.5 8.7 0.00 0.00 0.00 70 1014.4
20260906180003 87 165 3.5 8.7 0.00 0.00 0.00 71 1014.5
20260906175713 87 162 3.5 7.8 0.00 0.00 0.00 69 1014.5
20260906175004 87 146 4.3 9.6 0.00 0.00 0.00 70 1014.6
20260906174713 87 143 3.5 9.6 0.00 0.00 0.00 70 1014.6
20260906174003 87 147 3.5 8.7 0.00 0.00 0.00 72 1014.7
20260906173713 86 147 4.3 9.6 0.00 0.00 0.00 73 1014.7
20260906173003 86 165 4.3 9.6 0.00 0.00 0.00 71 1014.7
20260906172503 86 166 3.5 7.8 0.00 0.00 0.00 71 1014.8
20260906172003 85 144 3.5 8.7 0.00 0.00 0.00 74 1015.0
20260906171503 85 146 4.3 8.7 0.00 0.00 0.00 75 1015.1
20260906171003 85 155 3.5 8.7 0.00 0.00 0.00 73 1015.2
20260906170503 85 167 3.5 8.7 0.00 0.00 0.00 74 1015.3
20260906170003 84 156 4.3 8.7 0.00 0.00 0.00 76 1015.3
20260906165503 84 146 4.3 8.7 0.00 0.00 0.00 75 1015.4
20260906165004 84 141 2.6 7.0 0.00 0.00 0.00 77 1015.4
20260906164713 84 139 2.6 7.8 0.00 0.00 0.00 79 1015.3
20260906164003 83 153 2.6 7.8 0.00 0.00 0.00 78 1015.4
20260906163503 83 137 1.7 6.1 0.00 0.00 0.00 79 1015.5
20260906163003 83 143 1.7 6.1 0.00 0.00 0.00 78 1015.7
20260906162503 82 176 1.7 5.2 0.00 0.00 0.00 79 1015.7
20260906162003 82 189 0.9 5.2 0.00 0.00 0.00 80 1015.8
20260906161715 82 173 0.9 5.2 0.00 0.00 0.00 81 1015.9
20260906161003 81 109 0.9 3.5 0.00 0.00 0.00 81 1015.8
20260906160503 81 136 0.9 3.5 0.00 0.00 0.00 83 1015.8
20260906160004 81 135 0.9 3.5 0.00 0.00 0.00 81 1015.8
20260906155503 81 128 0.9 3.5 0.00 0.00 0.00 82 1015.7
20260906155003 81 133 1.7 5.2 0.00 0.00 0.00 82 1015.9
20260906154503 81 156 1.7 5.2 0.00 0.00 0.00 82 1015.8
20260906154003 81 176 1.7 5.2 0.00 0.00 0.00 82 1015.7
20260906153503 80 185 1.7 5.2 0.00 0.00 0.00 82 1015.7
20260906153003 80 214 1.7 4.3 0.00 0.00 0.00 82 1015.8
20260906152503 80 229 0.9 2.6 0.00 0.00 0.00 81 1015.8
20260906152003 80 258 0.0 2.6 0.00 0.00 0.00 82 1016.0
20260906151504 81 252 1.7 6.1 0.00 0.00 0.00 81 1016.0
20260906151003 81 251 2.6 6.1 0.00 0.00 0.00 81 1016.0
20260906150503 81 240 1.7 7.8 0.00 0.00 0.00 82 1016.1
20260906150003 81 186 1.7 7.8 0.00 0.00 0.00 82 1015.9
20260906145712 81 152 1.7 7.0 0.00 0.00 0.00 81 1015.4
20260906145003 81 146 2.6 7.0 0.00 0.00 0.00 81 1015.3
20260906144503 81 142 2.6 9.6 0.00 0.00 0.00 82 1015.3
20260906144003 81 139 3.5 9.6 0.00 0.00 0.00 81 1015.2
20260906143503 81 140 2.6 8.7 0.00 0.00 0.00 82 1015.1
20260906143003 81 140 2.6 8.7 0.00 0.00 0.00 82 1015.2
20260906142503 80 127 1.7 7.0 0.00 0.00 0.00 82 1015.2
20260906142003 80 118 1.7 6.1 0.00 0.00 0.00 83 1015.2
20260906141503 80 117 2.6 8.7 0.00 0.00 0.00 83 1015.2
20260906141003 80 126 3.5 8.7 0.00 0.00 0.00 83 1015.3
20260906140503 80 137 2.6 7.8 0.00 0.00 0.00 83 1015.3
20260906140003 80 127 1.7 6.1 0.00 0.00 0.00 83 1015.3
20260906135503 80 115 0.9 2.6 0.00 0.00 0.00 84 1015.3
20260906135003 80 139 0.9 6.1 0.00 0.00 0.00 84 1015.3
20260906134503 79 142 1.7 6.1 0.00 0.00 0.00 85 1015.3
20260906134003 79 125 1.7 7.8 0.00 0.00 0.00 84 1015.3
20260906133503 79 117 1.7 7.8 0.00 0.00 0.00 84 1015.4
20260906133003 79 105 1.7 6.1 0.00 0.00 0.00 85 1015.4
20260906132504 79 108 1.7 6.1 0.00 0.00 0.00 85 1015.3
20260906132003 79 103 0.9 3.5 0.00 0.00 0.00 85 1015.3
20260906131503 78 81 1.7 6.1 0.00 0.00 0.00 86 1015.2
20260906131003 78 78 1.7 6.1 0.00 0.00 0.00 86 1015.2
20260906130503 78 78 1.7 3.5 0.00 0.00 0.00 87 1015.2
20260906130003 78 86 0.9 3.5 0.00 0.00 0.00 87 1015.3
20260906125503 77 99 0.9 3.5 0.00 0.00 0.00 87 1015.2
20260906125003 77 101 0.9 3.5 0.00 0.00 0.00 87 1015.1
20260906124503 77 99 0.9 2.6 0.00 0.00 0.00 87 1015.0
20260906124213 77 100 0.9 2.6 0.00 0.00 0.00 88 1014.9
20260906123503 77 106 0.0 2.6 0.00 0.00 0.00 88 1014.7
20260906123004 77 107 0.0 1.7 0.00 0.00 0.00 88 1014.8
20260906122504 77 108 0.0 1.7 0.00 0.00 0.00 88 1014.7
20260906122212 77 112 0.0 1.7 0.00 0.00 0.00 88 1014.7
20260906121003 76 120 0.9 3.5 0.00 0.00 0.00 88 1014.6
20260906120503 76 138 0.9 4.3 0.00 0.00 0.00 88 1014.4
20260906120003 76 141 0.9 4.3 0.00 0.00 0.00 88 1014.5
20260906115503 76 130 0.9 2.6 0.00 0.00 0.00 88 1014.5
20260906115003 76 125 0.0 2.6 0.00 0.00 0.00 88 1014.5
20260906114503 76 125 0.0 0.9 0.00 0.00 0.00 88 1014.3
20260906114214 76 166 0.0 0.9 0.00 0.00 0.00 88 1014.2
20260906113713 76 0 0.0 0.0 0.00 0.00 0.00 87 1014.2
20260906113003 76 0 0.0 0.0 0.00 0.00 0.00 87 1014.1
20260906112503 77 0 0.0 0.0 0.00 0.00 0.00 87 1014.2
20260906112212 77 0 0.0 0.0 0.00 0.00 0.00 87 1014.2
20260906111503 77 0 0.0 0.0 0.00 0.00 0.00 87 1014.2
20260906111004 77 0 0.0 0.0 0.00 0.00 0.00 87 1014.3
20260906110503 77 0 0.0 0.0 0.00 0.00 0.00 86 1014.3
20260906110004 77 0 0.0 0.0 0.00 0.00 0.00 86 1014.5
20260906105713 77 0 0.0 0.0 0.00 0.00 0.00 86 1014.3
20260906105003 77 0 0.0 0.0 0.00 0.00 0.00 86 1014.4
20260906104503 77 0 0.0 0.0 0.00 0.00 0.00 86 1014.4
20260906104003 77 0 0.0 0.0 0.00 0.00 0.00 86 1014.3
20260906103503 77 0 0.0 0.0 0.00 0.00 0.00 86 1014.2
20260906103214 77 0 0.0 0.0 0.00 0.00 0.00 85 1014.2
20260906102713 77 0 0.0 0.0 0.00 0.00 0.00 85 1014.1
20260906102003 77 0 0.0 0.0 0.00 0.00 0.00 85 1013.9
20260906101503 77 119 0.0 0.9 0.00 0.00 0.00 85 1013.9
20260906101004 78 119 0.0 0.9 0.00 0.00 0.00 85 1014.0
20260906100503 78 119 0.0 1.7 0.00 0.00 0.00 85 1014.0
20260906100003 78 119 0.0 1.7 0.00 0.00 0.00 85 1014.0
20260906095503 78 119 0.0 1.7 0.00 0.00 0.00 85 1014.0
20260906095003 78 0 0.0 0.9 0.00 0.00 0.00 84 1013.8
20260906094504 78 0 0.0 0.0 0.00 0.00 0.00 84 1013.8
20260906094214 78 0 0.0 0.0 0.00 0.00 0.00 84 1013.8
20260906093503 78 0 0.0 0.0 0.00 0.00 0.00 84 1013.9
20260906093003 78 0 0.0 0.0 0.00 0.00 0.00 84 1013.9
20260906092503 78 0 0.0 0.0 0.00 0.00 0.00 84 1014.0
20260906092003 78 0 0.0 0.0 0.00 0.00 0.00 83 1014.0
20260906091504 78 119 0.0 0.9 0.00 0.00 0.00 83 1014.0
20260906091003 78 119 0.0 0.9 0.00 0.00 0.00 84 1013.9
20260906090503 78 119 0.0 0.9 0.00 0.00 0.00 83 1014.0
20260906090003 78 119 0.0 0.9 0.00 0.00 0.00 83 1014.0
20260906085503 78 119 0.0 0.9 0.00 0.00 0.00 83 1014.0
20260906085003 78 119 0.0 0.9 0.00 0.00 0.00 83 1014.0
20260906084503 78 119 0.0 0.9 0.00 0.00 0.00 83 1014.0
20260906084003 78 119 0.0 1.7 0.00 0.00 0.00 83 1014.0
20260906083714 78 119 0.0 1.7 0.00 0.00 0.00 83 1013.9
20260906083003 78 119 0.0 0.9 0.00 0.00 0.00 83 1013.8
20260906082503 78 119 0.0 0.9 0.00 0.00 0.00 83 1013.8
20260906082003 78 119 0.0 1.7 0.00 0.00 0.00 82 1013.8
20260906081503 79 119 0.0 1.7 0.00 0.00 0.00 82 1013.7
20260906081003 79 0 0.0 0.0 0.00 0.00 0.00 82 1013.8
20260906080504 79 0 0.0 0.0 0.00 0.00 0.00 82 1013.9
20260906080004 79 118 0.0 0.9 0.00 0.00 0.00 82 1013.8
20260906075714 79 118 0.0 1.7 0.00 0.00 0.00 82 1013.8
20260906075003 79 118 0.0 1.7 0.00 0.00 0.00 82 1013.7
20260906074503 79 118 0.0 0.9 0.00 0.00 0.00 82 1013.7
20260906074003 79 118 0.0 1.7 0.00 0.00 0.00 82 1013.7
20260906073714 79 118 0.0 1.7 0.00 0.00 0.00 81 1013.7
20260906073003 79 118 0.9 1.7 0.00 0.00 0.00 81 1013.6
20260906072503 79 119 0.9 1.7 0.00 0.00 0.00 81 1013.7
20260906072003 79 119 0.0 1.7 0.00 0.00 0.00 81 1013.7
20260906071503 80 131 0.0 1.7 0.00 0.00 0.00 81 1013.8
20260906071003 80 129 0.0 2.6 0.00 0.00 0.00 80 1013.7
20260906070503 80 126 0.9 4.3 0.00 0.00 0.00 80 1013.8
20260906070004 80 114 0.9 4.3 0.00 0.00 0.00 80 1013.8
20260906065503 80 110 0.9 2.6 0.00 0.00 0.00 80 1013.8
20260906065003 80 117 0.9 2.6 0.00 0.00 0.00 80 1013.8
20260906064713 80 121 0.9 2.6 0.00 0.00 0.00 80 1013.8
20260906064003 80 120 0.9 3.5 0.00 0.00 0.00 79 1013.9
20260906063503 80 116 0.9 3.5 0.00 0.00 0.00 79 1014.0
20260906063214 80 114 0.9 3.5 0.00 0.00 0.00 79 1014.0
20260906062713 80 110 0.9 2.6 0.00 0.00 0.00 79 1014.1
20260906062003 81 110 0.9 2.6 0.00 0.00 0.00 79 1014.0
20260906061503 81 117 0.9 2.6 0.00 0.00 0.00 79 1014.0
20260906061003 81 123 0.9 2.6 0.00 0.00 0.00 79 1014.2
20260906060503 81 128 0.9 5.2 0.00 0.00 0.00 78 1014.2
20260906060003 81 126 0.9 5.2 0.00 0.00 0.00 78 1014.1
20260906055713 81 126 0.9 5.2 0.00 0.00 0.00 78 1014.0
20260906055003 81 112 0.9 2.6 0.00 0.00 0.00 78 1014.0
20260906054503 82 100 0.9 2.6 0.00 0.00 0.00 78 1014.0
20260906054003 82 64 0.9 1.7 0.00 0.00 0.00 77 1014.0
20260906053713 82 48 0.9 2.6 0.00 0.00 0.00 77 1014.0
20260906053003 82 81 0.9 3.5 0.00 0.00 0.00 77 1013.9
20260906052713 82 91 0.9 3.5 0.00 0.00 0.00 77 1013.9
20260906052003 82 96 0.9 3.5 0.00 0.00 0.00 77 1013.9
20260906051503 82 103 0.9 3.5 0.00 0.00 0.00 77 1013.9
20260906051003 82 99 0.9 2.6 0.00 0.00 0.00 77 1013.9
20260906050503 82 85 0.9 2.6 0.00 0.00 0.00 76 1013.9
20260906050004 83 77 0.9 2.6 0.00 0.00 0.00 76 1014.0
20260906045503 83 77 0.9 3.5 0.00 0.00 0.00 76 1013.9
20260906045003 83 78 0.9 3.5 0.00 0.00 0.00 76 1013.9
20260906044503 83 77 0.9 2.6 0.00 0.00 0.00 76 1014.0
20260906044003 83 76 1.7 2.6 0.00 0.00 0.00 76 1013.8
20260906043503 83 76 1.7 2.6 0.00 0.00 0.00 76 1013.8
20260906043003 83 76 1.7 3.5 0.00 0.00 0.00 76 1013.9
20260906042503 83 76 1.7 3.5 0.00 0.00 0.00 75 1013.9
20260906042003 84 76 0.9 2.6 0.00 0.00 0.00 76 1013.9
20260906041503 84 75 0.9 2.6 0.00 0.00 0.00 76 1013.9
20260906041003 84 71 0.9 3.5 0.00 0.00 0.00 75 1013.9
20260906040503 84 67 0.9 3.5 0.00 0.00 0.00 75 1014.0
20260906040003 84 66 0.9 2.6 0.00 0.00 0.00 75 1014.0
20260906035503 84 66 0.9 2.6 0.00 0.00 0.00 75 1014.0
20260906035003 84 66 0.9 2.6 0.00 0.00 0.00 75 1014.0
20260906034503 84 66 0.0 2.6 0.00 0.00 0.00 75 1014.0
20260906034003 84 66 0.9 2.6 0.00 0.00 0.00 74 1014.0
20260906033503 85 66 0.9 2.6 0.00 0.00 0.00 74 1014.0
20260906033003 85 67 0.9 2.6 0.00 0.00 0.00 74 1013.8
20260906032503 85 66 0.9 2.6 0.00 0.00 0.00 74 1013.8
20260906032004 85 64 1.7 2.6 0.00 0.00 0.00 74 1013.8
20260906031503 85 57 1.7 3.5 0.00 0.00 0.00 74 1013.8
20260906031003 85 54 1.7 3.5 0.00 0.00 0.00 73 1013.8
20260906030714 85 63 1.7 3.5 0.00 0.00 0.00 73 1013.7
20260906030003 85 77 1.7 4.3 0.00 0.00 0.00 73 1013.5
20260906025503 86 73 1.7 4.3 0.00 0.00 0.00 73 1013.3
20260906025003 86 70 1.7 3.5 0.00 0.00 0.00 73 1013.3
20260906024503 86 73 1.7 5.2 0.00 0.00 0.00 73 1013.2
20260906024005 86 74 1.7 5.2 0.00 0.00 0.00 73 1013.2
20260906023503 86 76 2.6 4.3 0.00 0.00 0.00 73 1013.0
20260906023003 86 78 2.6 3.5 0.00 0.00 0.00 73 1013.0
20260906022503 86 76 1.7 3.5 0.00 0.00 0.00 72 1012.9
20260906022003 86 74 1.7 3.5 0.00 0.00 0.00 72 1013.0
20260906021714 86 74 1.7 3.5 0.00 0.00 0.00 72 1012.9
20260906021004 86 74 1.7 2.6 0.00 0.00 0.00 72 1012.9
20260906020503 87 75 1.7 2.6 0.00 0.00 0.00 71 1012.6
20260906020003 87 72 1.7 3.5 0.00 0.00 0.00 71 1012.5
20260906015713 87 68 1.7 3.5 0.00 0.00 0.00 71 1012.3
20260906015003 87 68 1.7 4.3 0.00 0.00 0.00 71 1012.2
20260906014503 87 73 1.7 2.6 0.00 0.00 0.00 71 1012.3
20260906014003 87 72 1.7 2.6 0.00 0.00 0.00 70 1012.2
20260906013503 87 71 1.7 2.6 0.00 0.00 0.00 70 1012.1
20260906013214 88 72 1.7 2.6 0.00 0.00 0.00 70 1012.1
20260906012713 88 79 1.7 2.6 0.00 0.00 0.00 70 1012.1
20260906012003 88 79 1.7 3.5 0.00 0.00 0.00 70 1012.0
20260906011713 88 73 1.7 3.5 0.00 0.00 0.00 70 1011.9
20260906011214 88 54 0.9 2.6 0.00 0.00 0.00 70 1012.0
20260906010503 88 61 1.7 3.5 0.00 0.00 0.00 69 1011.8
20260906010003 89 71 1.7 3.5 0.00 0.00 0.00 69 1011.9
20260906005503 89 79 1.7 2.6 0.00 0.00 0.00 69 1011.8
20260906005003 89 76 1.7 3.5 0.00 0.00 0.00 68 1011.8
20260906004503 89 73 0.9 3.5 0.00 0.00 0.00 68 1011.8
20260906004212 89 73 0.9 3.5 0.00 0.00 0.00 68 1011.8
20260906003503 89 86 0.9 2.6 0.00 0.00 0.00 68 1011.8
20260906003003 89 100 1.7 3.5 0.00 0.00 0.00 67 1011.6
20260906002713 90 100 1.7 3.5 0.00 0.00 0.00 68 1011.6
20260906002003 90 100 1.7 6.1 0.00 0.00 0.00 67 1011.5
20260906001503 90 105 2.6 6.1 0.00 0.00 0.00 67 1011.5
20260906001214 90 102 2.6 6.1 0.00 0.00 0.00 67 1011.4
20260906000503 90 95 1.7 6.1 0.00 0.00 0.00 67 1011.4
20260906000003 90 105 1.7 6.1 0.00 0.00 0.00 66 1011.5
20260905235503 91 114 1.7 6.1 0.00 0.00 0.00 65 1011.6
20260905235003 91 133 1.7 6.1 0.00 0.00 0.00 65 1011.6
20260905234713 91 135 1.7 4.3 0.00 0.00 0.00 66 1011.6
20260905234214 91 118 2.6 7.8 0.00 0.00 0.00 65 1011.6
20260905233503 91 111 1.7 6.1 0.00 0.00 0.00 65 1011.6
20260905233003 91 117 1.7 6.1 0.00 0.00 0.00 65 1011.5
20260905232503 91 99 1.7 5.2 0.00 0.00 0.00 63 1011.5
20260905232003 92 84 1.7 4.3 0.00 0.00 0.00 64 1011.5
20260905231503 92 102 1.7 4.3 0.00 0.00 0.00 63 1011.6
20260905231008 92 140 2.6 7.8 0.00 0.00 0.00 63 1011.5
20260905230503 92 139 3.5 9.6 0.00 0.00 0.00 63 1011.5
20260905230213 92 126 3.5 9.6 0.00 0.00 0.00 63 1011.5
20260905225503 92 112 2.6 7.0 0.00 0.00 0.00 62 1011.5
20260905225003 92 121 2.6 7.8 0.00 0.00 0.00 62 1011.5
20260905224503 92 129 2.6 7.8 0.00 0.00 0.00 62 1011.5
20260905224003 93 136 3.5 9.6 0.00 0.00 0.00 60 1011.3
20260905223503 93 126 3.5 9.6 0.00 0.00 0.00 60 1011.4
20260905223003 93 129 3.5 9.6 0.00 0.00 0.00 61 1011.2
20260905222712 94 130 3.5 9.6 0.00 0.00 0.00 59 1011.2
20260905222003 94 138 4.3 9.6 0.00 0.00 0.00 60 1011.2
20260905221714 93 147 4.3 9.6 0.00 0.00 0.00 59 1011.2
20260905221003 93 141 4.3 10.4 0.00 0.00 0.00 59 1011.2
20260905220503 93 142 5.2 12.2 0.00 0.00 0.00 58 1011.2
20260905220004 94 144 4.3 12.2 0.00 0.00 0.00 57 1011.3
20260905215503 93 135 3.5 11.3 0.00 0.00 0.00 58 1011.3
20260905215003 93 112 2.6 6.1 0.00 0.00 0.00 59 1011.4
20260905214503 93 123 2.6 9.6 0.00 0.00 0.00 59 1011.5
20260905214219 93 130 2.6 9.6 0.00 0.00 0.00 59 1011.4
20260905213714 92 116 2.6 9.6 0.00 0.00 0.00 57 1011.5
20260905213003 92 91 3.5 8.7 0.00 0.00 0.00 60 1011.6
20260905212503 92 92 3.5 8.7 0.00 0.00 0.00 59 1011.6
20260905212003 93 98 2.6 7.8 0.00 0.00 0.00 57 1011.7
20260905211503 93 110 2.6 7.8 0.00 0.00 0.00 58 1011.8
20260905211213 93 118 2.6 8.7 0.00 0.00 0.00 57 1012.0
20260905210503 93 85 2.6 8.7 0.00 0.00 0.00 59 1012.1
20260905210213 92 72 2.6 7.0 0.00 0.00 0.00 58 1012.1
20260905205503 92 118 1.7 8.7 0.00 0.00 0.00 59 1012.2
20260905205003 92 121 2.6 8.7 0.00 0.00 0.00 60 1012.2
20260905204714 92 103 2.6 8.7 0.00 0.00 0.00 61 1012.3
20260905204004 91 80 3.5 7.0 0.00 0.00 0.00 60 1012.4
20260905203503 91 72 3.5 7.0 0.00 0.00 0.00 60 1012.6
20260905203003 91 65 3.5 7.8 0.00 0.00 0.00 58 1012.8
20260905202713 91 65 3.5 7.8 0.00 0.00 0.00 59 1012.9
20260905202003 91 78 3.5 8.7 0.00 0.00 0.00 57 1013.0
20260905201503 92 107 3.5 8.7 0.00 0.00 0.00 59 1013.0
20260905201212 92 116 2.6 9.6 0.00 0.00 0.00 58 1013.2
20260905200503 92 99 2.6 9.6 0.00 0.00 0.00 58 1013.5
20260905200003 91 102 3.5 7.8 0.00 0.00 0.00 60 1013.8
20260905195503 91 85 3.5 7.8 0.00 0.00 0.00 60 1013.8
20260905195003 90 64 3.5 7.8 0.00 0.00 0.00 59 1013.9
20260905194503 90 65 3.5 7.8 0.00 0.00 0.00 63 1013.8
20260905194003 90 66 3.5 7.0 0.00 0.00 0.00 63 1013.8
20260905193504 90 68 4.3 8.7 0.00 0.00 0.00 62 1013.8
20260905193003 90 71 3.5 8.7 0.00 0.00 0.00 62 1013.9
20260905192503 90 69 3.5 8.7 0.00 0.00 0.00 67 1013.8
20260905192003 91 77 3.5 8.7 0.00 0.00 0.00 64 1013.9
20260905191503 91 77 2.6 10.4 0.00 0.00 0.00 63 1014.0
20260905191003 90 61 3.5 10.4 0.00 0.00 0.00 65 1014.2
20260905190503 90 54 3.5 10.4 0.00 0.00 0.00 65 1014.4
20260905190003 90 51 3.5 10.4 0.00 0.00 0.00 64 1014.5
20260905185503 90 63 4.3 8.7 0.00 0.00 0.00 66 1014.6
20260905185003 89 60 5.2 10.4 0.00 0.00 0.00 66 1014.8
20260905184503 89 56 6.1 11.3 0.00 0.00 0.00 64 1014.9
20260905184214 89 56 5.2 11.3 0.00 0.00 0.00 65 1015.1